Regional Weather Roundup
Issued by NWS Cleveland, OH

Home | Current Version | Previous Version | Text Only | Print | Product List | Glossary On
Versions: 1 2 3 4 5 6 7 8 9 10 11 12 13 14 15 16 17 18 19 20 21 22 23 24 25 26 27 28 29 30 31 32 33 34 35 36 37 38 39 40 41 42 43 44 45 46 47 48 49 50
000
ASUS41 KCLE 240502
RWRCLE
OHIO REGIONAL WEATHER ROUNDUP
NATIONAL WEATHER SERVICE CLEVELAND, OH
1200 AM EST FRI FEB 24 2017

NOTE: "FAIR" INDICATES FEW OR NO CLOUDS BELOW 12,000 FEET WITH NO
SIGNIFICANT WEATHER AND/OR OBSTRUCTIONS TO VISIBILITY.

OHZ001>008-015>018-024>027-034-035-043-044-240600-
   NORTHWEST OHIO

CITY           SKY/WX    TMP DP  RH WIND       PRES   REMARKS
DEFIANCE       CLOUDY    49  45  86 NE10G20   29.74F
FINDLAY        MOCLDY    59  52  77 E8        29.72F
TOLEDO EXPRESS CLOUDY    44  43  96 NE12      29.78S
TOLEDO EXEC    LGT RAIN  44  42  93 NE12      29.80F
LIMA           MOCLDY    58  55  90 SE12      29.72F
$$

OHZ009>014-019>023-028>033-038-089-240600-
   NORTHEAST OHIO

CITY           SKY/WX    TMP DP  RH WIND       PRES   REMARKS
CLE-HOPKINS    CLOUDY    54  48  80 CALM      29.79F FOG
CLE-LAKEFRONT  LGT RAIN  44  41  89 NE3       29.78S
CUY CO. ARPT   NOT AVBL
LORAIN-ELYRIA  CLOUDY    50  45  83 SE5       29.77F
ASHTABULA      CLOUDY    50  49  96 CALM      29.80F
AKRON-CANTON   CLOUDY    57  54  89 S6        29.79F
WOOSTER        CLOUDY    55  53  93 S3        29.79S
MANSFIELD      CLOUDY    57  55  93 S6        29.78S
YOUNGSTOWN     LGT RAIN  54  52  93 SE7       29.81F
$$

OHZ042-051>053-060>062-070>072-077>081-240600-
  SOUTHWEST OHIO

CITY           SKY/WX    TMP DP  RH WIND       PRES   REMARKS
CINC-COVINGTON MOCLDY    62  56  80 SE10      29.74S
CINC-LUNKEN    PTCLDY    58  55  90 W3        29.75S
HAMILTON       PTCLDY    62  57  83 SE5       29.74F
DAYTON         CLOUDY    56  53  90 SE9       29.74F
WRIGHT-PAT AFB CLOUDY    60  59  96 SE3       29.74F
DAYTON GENERAL MOCLDY    61  55  81 SE8       29.74F
WILMINGTON     MOCLDY    58  54  86 SE7       29.75F
$$

OHZ036-037-039>041-045>050-054>059-063>069-073>076-082>088-240600-
  CENTRAL AND SOUTHEAST OHIO

CITY           SKY/WX    TMP DP  RH WIND       PRES   REMARKS
COLUMBUS       CLOUDY    62  57  83 S5        29.77F
OSU AIRPORT    CLOUDY    60  57  89 S8        29.77S
BOLTON FIELD   NOT AVBL
RICKENBACK AFB CLOUDY    60  56  87 S6        29.77F
NEWARK         CLOUDY    60  54  80 S3        29.78S
MARION         CLOUDY    57  54  89 S8        29.77F
LANCASTER      CLOUDY    62  55  77 CALM      29.79F
ZANESVILLE     CLOUDY    60  54  80 S6        29.79F
NEW PHILLY     NOT AVBL
$$




USA.gov is the U.S. government's official web portal to all federal, state and local government web resources and services.